Location: Peterborough
(44.3091°N, 78.3197°W)
Time: 04:08:15
(UTC-04:00)

Vanguard 3 - Pass Details

Date: 26 March 2023
Orbit: 507 x 3246 km, 33.4° (Epoch: 08 June)

Event Time Altitude Azimuth Distance (km) Brightness Sun altitude
Rises 07:40:38 0° 268° (W) 7,205 11.3 5.4°
Reaches altitude 10° 07:45:44 10° 265° (W) 6,167 11.0 6.3°
Maximum altitude 08:03:47 52° 197° (SSW) 3,157 10.2 9.5°
Drops below altitude 10° 08:16:05 10° 126° (SE) 4,334 12.2 11.7°
Sets 08:19:00 0° 121° (ESE) 5,010 12.6 12.2°
